• Join FlightAware (Why Join?)
  • Login
  • US Flag 
02:54PM EST


 

Airport Tracker/Info


-or-


 

Live Flight TrackerFlight Track Log ✈ DAL1670 ✈ 29-Apr-2013 ✈ KATL - KCHS

Flight Track Log - Related Links

Times and Time Zones

All times are in EDT time to prevent confusion due to time zone crossing. See the DAL1670 flight status page for this flight to view local times or setup timezone preferences in your user account.

Time Position Orientation Groundspeed Altitude Reporting Facility
EDT Latitude Longitude Course Direction KTS MPH feet Rate Location/Type
08:25AM 33.6333 -84.3833 81° East 182 209 2,300  Level Atlanta TRACON
08:26AM 33.6333 -84.3000 90° East 270 311 4,300 2,450 Climbing Atlanta TRACON
08:27AM 33.6996 -83.9941 118° Southeast  Level FlightAware Approximate
08:27AM 33.6333 -84.2000 90° East 291 335 7,200  Level Atlanta TRACON
08:27AM 33.6336 -84.1161 90° East 320 368 9,600 2,018 Climbing Atlanta Center
08:28AM 33.6427 -83.8641 118° Southeast  Level FlightAware Approximate
08:28AM 33.6147 -84.0064 102° East 326 375 11,000  Level Atlanta Center
08:29AM 33.5843 -83.7352 121° Southeast  Level FlightAware Approximate
08:29AM 33.5917 -83.8817 102° East 363 418 13,000  Level Atlanta Center
08:30AM 33.5368 -83.6058 81° East  Level FlightAware Approximate
08:30AM 33.5683 -83.7472 102° East 399 459 15,500  Level Atlanta Center
08:31AM 33.5514 -83.6250 99° East 410 472 16,900 1,600 Climbing Atlanta Center
08:32AM 33.5697 -83.4803 81° East 433 498 18,700 1,900 Climbing Atlanta Center
08:33AM 33.5836 -83.3306 84° East 444 511 20,700 1,150 Climbing Atlanta Center
08:34AM 33.6033 -83.1733 81° East 461 531 21,000 150 Climbing Atlanta Center
08:35AM 33.6189 -83.0161 83° East 472 543 21,000  Level Atlanta Center
08:36AM 33.6361 -82.8586 82° East 472 543 21,000  Level Atlanta Center
08:37AM 33.6533 -82.7036 82° East 467 537 21,000  Level Atlanta Center
08:38AM 33.6703 -82.5336 83° East 467 537 21,000  Level Atlanta Center
08:39AM 33.6850 -82.3811 83° East 467 537 21,000  Level Atlanta Center
08:41AM 33.7006 -82.1461 85° East 459 528 21,000  Level Jacksonville Center
08:42AM 33.6581 -82.0017 109° East 442 509 21,000  Level Jacksonville Center
08:43AM 33.6131 -81.8600 111° Southeast 447 514 21,000  Level Jacksonville Center
08:44AM 33.5681 -81.7236 112° Southeast 447 514 21,000 -550 Level Jacksonville Center
08:45AM 33.5250 -81.5869 111° Southeast 447 514 19,900 -1,300 Descending Jacksonville Center
08:46AM 33.4858 -81.4531 109° East 434 499 18,400 -1,400 Descending Jacksonville Center
08:47AM 33.4428 -81.3219 111° Southeast 424 488 17,100 -1,600 Descending Jacksonville Center
08:48AM 33.4036 -81.2006 111° Southeast 409 471 15,200 -1,650 Descending Jacksonville Center
08:49AM 33.3642 -81.0794 111° Southeast 402 463 13,800 -1,450 Descending Jacksonville Center
08:50AM 33.3269 -80.9611 111° Southeast 386 444 12,300 -1,400 Descending Jacksonville Center
08:51AM 33.2897 -80.8450 111° Southeast 379 436 11,000 -700 Descending Jacksonville Center
08:52AM 33.2544 -80.7389 112° Southeast 369 425 10,900 -150 Descending Jacksonville Center
08:53AM 33.2236 -80.6356 110° East 358 412 10,700 -700 Descending Jacksonville Center
08:54AM 33.1989 -80.5369 107° East 321 369 9,500 -1,650 Descending Jacksonville Center
08:55AM 33.1719 -80.4433 109° East 304 350 7,400 -1,900 Descending Jacksonville Center
08:56AM 33.1450 -80.3472 108° East 299 344 5,700 -1,750 Descending Jacksonville Center
08:57AM 33.1225 -80.2611 107° East 294 338 3,900 -1,850 Descending Jacksonville Center
08:58AM 33.0994 -80.1700 107° East 287 330 2,000 -1,200 Descending Jacksonville Center
08:59AM 33.0814 -80.0986 107° East 276 318 1,500 -250 Descending Jacksonville Center
09:00AM 33.0675 -80.0347 105° East 233 268 1,500  Level Jacksonville Center